• In Deutschland
  • Länderverzeichnis
  • Für 7 Tage
  • Wassertemperatur
  • Satellitenkarten
  • Wetterkarte
  • Widgets
  • user-avatar
    Anmelden

    Stündliche Wetter Eisenstadt

    Heute, 11 Dezember, Montag

    Zeit Temperatur Niederschläge Wind Luftdruck Luftfeuchtigkeit
    00:00 -1°C° 0 mm 6 m/S 708 mmHg 79%
    01:00 0°C° 0 mm 5 m/S 708 mmHg 81%
    02:00 -1°C° 0 mm 6 m/S 708 mmHg 81%
    03:00 -1°C° 0 mm 6 m/S 708 mmHg 82%
    04:00 0°C° 0 mm 7 m/S 707 mmHg 82%
    05:00 0°C° 0 mm 7 m/S 707 mmHg 83%
    06:00 +2°C° 0 mm 7 m/S 707 mmHg 84%
    07:00 +1°C° 0 mm 6 m/S 708 mmHg 86%
    08:00 +3°C° 0 mm 7 m/S 708 mmHg 84%
    09:00 +4°C° 0 mm 7 m/S 708 mmHg 82%
    10:00 +5°C° 0 mm 8 m/S 708 mmHg 80%
    11:00 +6°C° 0,1 mm 8 m/S 707 mmHg 80%
    12:00 +6°C° 0,1 mm 9 m/S 707 mmHg 80%
    13:00 +7°C° 0,1 mm 9 m/S 707 mmHg 81%
    14:00 +7°C° 0,1 mm 9 m/S 707 mmHg 81%
    15:00 +9°C° 0,1 mm 8 m/S 707 mmHg 81%
    16:00 +9°C° 0,1 mm 8 m/S 707 mmHg 81%
    17:00 +9°C° 0,1 mm 8 m/S 707 mmHg 80%
    18:00 +9°C° 0,1 mm 7 m/S 707 mmHg 80%
    19:00 +9°C° 0,1 mm 7 m/S 707 mmHg 79%
    20:00 +9°C° 0 mm 7 m/S 707 mmHg 79%
    21:00 +9°C° 0 mm 7 m/S 707 mmHg 78%
    22:00 +7°C° 0 mm 8 m/S 708 mmHg 78%
    23:00 +7°C° 0 mm 8 m/S 708 mmHg 78%

    Morgen, 12 Dezember, Dienstag

    Zeit Temperatur Niederschläge Wind Luftdruck Luftfeuchtigkeit
    00:00 +7°C° 0 mm 8 m/S 708 mmHg 79%
    01:00 +8°C° 0 mm 7 m/S 708 mmHg 79%
    02:00 +8°C° 0 mm 7 m/S 709 mmHg 79%
    03:00 +8°C° 0 mm 6 m/S 709 mmHg 79%
    04:00 +8°C° 0 mm 6 m/S 709 mmHg 80%
    05:00 +7°C° 0 mm 5 m/S 710 mmHg 81%
    06:00 +7°C° 0 mm 4 m/S 711 mmHg 82%
    07:00 +7°C° 0 mm 3 m/S 712 mmHg 83%
    08:00 +7°C° 0 mm 3 m/S 713 mmHg 81%
    09:00 +8°C° 0 mm 3 m/S 714 mmHg 79%
    10:00 +8°C° 0 mm 3 m/S 715 mmHg 77%
    11:00 +8°C° 0 mm 3 m/S 716 mmHg 76%
    12:00 +8°C° 0 mm 3 m/S 716 mmHg 75%
    13:00 +8°C° 0 mm 3 m/S 717 mmHg 73%
    14:00 +7°C° 0,6 mm 3 m/S 717 mmHg 76%
    15:00 +5°C° 0,6 mm 3 m/S 718 mmHg 78%
    16:00 +4°C° 0,6 mm 3 m/S 718 mmHg 80%
    17:00 +3°C° 1,4 mm 3 m/S 719 mmHg 79%
    18:00 +3°C° 1,4 mm 4 m/S 720 mmHg 79%
    19:00 +1°C° 1,4 mm 5 m/S 721 mmHg 78%
    20:00 +1°C° 1 mm 4 m/S 721 mmHg 78%
    21:00 +1°C° 1 mm 4 m/S 722 mmHg 78%
    22:00 0°C° 1 mm 4 m/S 723 mmHg 78%
    23:00 +1°C° 0,5 mm 3 m/S 723 mmHg 79%

    übermorgen, 13 Dezember, Mittwoch

    Zeit Temperatur Niederschläge Wind Luftdruck Luftfeuchtigkeit
    00:00 +1°C° 0,5 mm 3 m/S 724 mmHg 80%
    01:00 +1°C° 0,5 mm 3 m/S 724 mmHg 81%
    02:00 +2°C° 0,1 mm 2 m/S 724 mmHg 82%
    03:00 +1°C° 0,1 mm 2 m/S 725 mmHg 83%
    04:00 +1°C° 0,1 mm 2 m/S 725 mmHg 84%
    05:00 +1°C° 0 mm 2 m/S 725 mmHg 84%
    06:00 +1°C° 0 mm 2 m/S 725 mmHg 85%
    07:00 -1°C° 0 mm 2 m/S 726 mmHg 85%
    08:00 +2°C° 0 mm 1 m/S 726 mmHg 83%
    09:00 +2°C° 0 mm 1 m/S 726 mmHg 81%
    10:00 +3°C° 0 mm 1 m/S 726 mmHg 79%
    11:00 +2°C° 0 mm 2 m/S 726 mmHg 77%
    12:00 +3°C° 0 mm 2 m/S 725 mmHg 76%
    13:00 +3°C° 0 mm 2 m/S 724 mmHg 74%
    14:00 +2°C° 0 mm 3 m/S 724 mmHg 78%
    15:00 +1°C° 0 mm 3 m/S 723 mmHg 82%
    16:00 0°C° 0 mm 3 m/S 723 mmHg 86%
    17:00 0°C° 0 mm 3 m/S 722 mmHg 86%
    18:00 -1°C° 0 mm 4 m/S 722 mmHg 86%
    19:00 -2°C° 0 mm 4 m/S 721 mmHg 87%
    20:00 -2°C° 0 mm 4 m/S 721 mmHg 87%
    21:00 -2°C° 0 mm 4 m/S 721 mmHg 87%
    22:00 -2°C° 0 mm 4 m/S 720 mmHg 88%
    23:00 -1°C° 0 mm 3 m/S 719 mmHg 88%

    14 Dezember, Donnerstag

    Zeit Temperatur Niederschläge Wind Luftdruck Luftfeuchtigkeit
    00:00 -1°C° 0 mm 3 m/S 719 mmHg 88%
    01:00 -2°C° 0 mm 3 m/S 718 mmHg 89%
    02:00 -1°C° 0 mm 3 m/S 718 mmHg 88%
    03:00 -1°C° 0 mm 3 m/S 717 mmHg 88%
    04:00 -1°C° 0 mm 3 m/S 716 mmHg 88%
    05:00 -1°C° 0 mm 3 m/S 716 mmHg 87%
    06:00 -1°C° 0 mm 3 m/S 715 mmHg 86%
    07:00 -2°C° 0 mm 4 m/S 715 mmHg 85%
    08:00 0°C° 0 mm 3 m/S 715 mmHg 83%
    09:00 +1°C° 0 mm 3 m/S 715 mmHg 80%
    10:00 +2°C° 0 mm 3 m/S 715 mmHg 77%
    11:00 +3°C° 0 mm 3 m/S 715 mmHg 77%
    12:00 +4°C° 0 mm 3 m/S 714 mmHg 76%
    13:00 +5°C° 0 mm 2 m/S 714 mmHg 75%
    14:00 +5°C° 0,3 mm 2 m/S 713 mmHg 79%
    15:00 +4°C° 0,3 mm 2 m/S 713 mmHg 83%
    16:00 +4°C° 0,3 mm 2 m/S 713 mmHg 87%
    17:00 +3°C° 0 mm 2 m/S 712 mmHg 88%
    18:00 +3°C° 0 mm 2 m/S 712 mmHg 89%
    19:00 +2°C° 0 mm 2 m/S 711 mmHg 89%
    20:00 +2°C° 0 mm 2 m/S 711 mmHg 90%
    21:00 +1°C° 0 mm 3 m/S 710 mmHg 90%
    22:00 +1°C° 0 mm 3 m/S 710 mmHg 90%
    23:00 +1°C° 0 mm 3 m/S 710 mmHg 88%

    15 Dezember, Freitag

    Zeit Temperatur Niederschläge Wind Luftdruck Luftfeuchtigkeit
    00:00 +1°C° 0 mm 3 m/S 710 mmHg 85%
    01:00 0°C° 0 mm 4 m/S 710 mmHg 83%
    02:00 +1°C° 0 mm 3 m/S 711 mmHg 82%
    03:00 +2°C° 0 mm 2 m/S 711 mmHg 82%
    04:00 +2°C° 0 mm 2 m/S 711 mmHg 82%
    05:00 +2°C° 0,1 mm 2 m/S 711 mmHg 83%
    06:00 +3°C° 0,1 mm 1 m/S 712 mmHg 83%
    07:00 +4°C° 0,1 mm 1 m/S 712 mmHg 84%
    08:00 +4°C° 0,5 mm 1 m/S 712 mmHg 85%
    09:00 +4°C° 0,5 mm 1 m/S 712 mmHg 86%
    10:00 +3°C° 0,5 mm 2 m/S 712 mmHg 87%
    11:00 +3°C° 0,6 mm 2 m/S 712 mmHg 86%
    12:00 +3°C° 0,6 mm 2 m/S 712 mmHg 86%
    13:00 +3°C° 0,6 mm 2 m/S 712 mmHg 86%
    14:00 +3°C° 0,6 mm 2 m/S 711 mmHg 86%
    15:00 +2°C° 0,6 mm 2 m/S 711 mmHg 86%
    16:00 +2°C° 0,6 mm 2 m/S 711 mmHg 86%
    17:00 +1°C° 0,4 mm 3 m/S 711 mmHg 85%
    18:00 +1°C° 0,4 mm 3 m/S 712 mmHg 85%
    19:00 0°C° 0,4 mm 3 m/S 712 mmHg 85%
    20:00 0°C° 0,1 mm 3 m/S 712 mmHg 84%
    21:00 0°C° 0,1 mm 3 m/S 712 mmHg 84%
    22:00 0°C° 0,1 mm 3 m/S 712 mmHg 83%
    23:00 0°C° 0 mm 3 m/S 713 mmHg 83%

    16 Dezember, Samstag

    Zeit Temperatur Niederschläge Wind Luftdruck Luftfeuchtigkeit
    00:00 +1°C° 0 mm 2 m/S 713 mmHg 83%
    01:00 +1°C° 0 mm 2 m/S 713 mmHg 83%
    02:00 +1°C° 0 mm 2 m/S 713 mmHg 83%
    03:00 -1°C° 0 mm 2 m/S 714 mmHg 84%
    04:00 -1°C° 0 mm 2 m/S 714 mmHg 84%
    05:00 -1°C° 0 mm 2 m/S 715 mmHg 83%
    06:00 -1°C° 0 mm 3 m/S 716 mmHg 82%
    07:00 -1°C° 0 mm 3 m/S 717 mmHg 82%
    08:00 -1°C° 0 mm 3 m/S 717 mmHg 80%
    09:00 0°C° 0 mm 3 m/S 718 mmHg 78%
    10:00 0°C° 0 mm 3 m/S 719 mmHg 75%
    11:00 +1°C° 0 mm 3 m/S 719 mmHg 72%
    12:00 +1°C° 0 mm 3 m/S 719 mmHg 68%
    13:00 +2°C° 0 mm 3 m/S 719 mmHg 65%
    14:00 +2°C° 0 mm 2 m/S 720 mmHg 69%
    15:00 +1°C° 0 mm 2 m/S 720 mmHg 72%
    16:00 +1°C° 0 mm 2 m/S 720 mmHg 76%
    17:00 -1°C° 0 mm 2 m/S 721 mmHg 77%
    18:00 -1°C° 0 mm 2 m/S 721 mmHg 78%
    19:00 -2°C° 0 mm 2 m/S 722 mmHg 80%
    20:00 -2°C° 0 mm 2 m/S 722 mmHg 80%
    21:00 -2°C° 0 mm 2 m/S 722 mmHg 81%
    22:00 0°C° 0 mm 1 m/S 723 mmHg 81%
    23:00 0°C° 0 mm 1 m/S 723 mmHg 81%
    Mehr zeigen